GSOL EGHR-EGHR

Flight info

Callsign GSOL
Flight time 0h 3m
Altitude 2000
Route SIGHTSEEING
Aircraft PA24/L-SDE3FGHIRWY/LB1

Departure

Time 2026-04-26 08:31
Airport Goodwood Aerodrome (EGHR)

Arrival

Time 2026-04-26 08:34
Airport Goodwood Aerodrome (EGHR)
Time Latitude Longitude Altitude Speed Heading
2026-04-26 08:06 50.85866 -0.75648 104 ft 0 kts 51°
2026-04-26 08:06 50.85936 -0.75860 103 ft 0 kts 347°
2026-04-26 08:12 50.85935 -0.75860 103 ft 0 kts 347°
2026-04-26 08:16 50.85936 -0.75860 103 ft 0 kts 347°
2026-04-26 08:23 50.85960 -0.75870 103 ft 8 kts 343°
2026-04-26 08:24 50.86032 -0.75909 102 ft 14 kts 336°
2026-04-26 08:24 50.86106 -0.75997 104 ft 15 kts 320°
2026-04-26 08:24 50.86193 -0.76112 104 ft 17 kts 316°
2026-04-26 08:24 50.86268 -0.76242 106 ft 13 kts 308°
2026-04-26 08:25 50.86300 -0.76314 105 ft 6 kts 286°
2026-04-26 08:25 50.86294 -0.76334 105 ft 0 kts 212°
2026-04-26 08:28 50.86260 -0.76365 105 ft 7 kts 194°
2026-04-26 08:28 50.86235 -0.76346 106 ft 1 kts 136°
2026-04-26 08:29 50.86233 -0.76344 106 ft 0 kts 142°
2026-04-26 08:29 50.86233 -0.76343 106 ft 0 kts 142°
2026-04-26 08:29 50.86232 -0.76343 106 ft 0 kts 142°
2026-04-26 08:30 50.86205 -0.76304 106 ft 30 kts 137°
2026-04-26 08:30 50.85883 -0.75861 167 ft 75 kts 129°
2026-04-26 08:30 50.85549 -0.75252 400 ft 75 kts 107°
2026-04-26 08:30 50.85532 -0.74432 650 ft 79 kts 62°
2026-04-26 08:31 50.85989 -0.73960 780 ft 89 kts
2026-04-26 08:31 50.86590 -0.74383 865 ft 108 kts 325°
2026-04-26 08:31 50.87156 -0.75278 939 ft 117 kts 314°
2026-04-26 08:31 50.87687 -0.76296 1036 ft 123 kts 315°
2026-04-26 08:32 50.88256 -0.77300 1094 ft 126 kts 314°
2026-04-26 08:32 50.88717 -0.78507 1073 ft 128 kts 283°
2026-04-26 08:32 50.88581 -0.79796 1056 ft 115 kts 231°
2026-04-26 08:32 50.87915 -0.80009 872 ft 100 kts 134°
2026-04-26 08:33 50.87620 -0.79122 700 ft 84 kts 109°
2026-04-26 08:33 50.87391 -0.78298 541 ft 77 kts 114°
2026-04-26 08:33 50.87083 -0.77645 388 ft 75 kts 124°
2026-04-26 08:33 50.86726 -0.77058 266 ft 71 kts 129°
2026-04-26 08:34 50.86368 -0.76548 158 ft 67 kts 130°
2026-04-26 08:34 50.86071 -0.76117 105 ft 47 kts 137°
2026-04-26 08:34 50.85732 -0.75651 218 ft 71 kts 128°
2026-04-26 08:34 50.85356 -0.75150 373 ft 69 kts 133°
2026-04-26 08:35 50.84979 -0.74668 470 ft 70 kts 127°
2026-04-26 08:35 50.84796 -0.74007 632 ft 65 kts 96°
2026-04-26 08:35 50.84747 -0.73264 731 ft 70 kts 81°
2026-04-26 08:35 50.84919 -0.72537 831 ft 74 kts 57°
2026-04-26 08:36 50.85307 -0.71967 954 ft 82 kts 43°
2026-04-26 08:36 50.85823 -0.71445 1033 ft 90 kts 30°
2026-04-26 08:36 50.86486 -0.71263 1024 ft 106 kts 354°
2026-04-26 08:36 50.87029 -0.72054 1078 ft 116 kts 294°
2026-04-26 08:37 50.87249 -0.73270 1195 ft 119 kts 284°
2026-04-26 08:37 50.87637 -0.74467 1221 ft 126 kts 307°
2026-04-26 08:37 50.88167 -0.75597 1249 ft 132 kts 310°
2026-04-26 08:37 50.88735 -0.76797 1255 ft 136 kts 309°
2026-04-26 08:38 50.89283 -0.78061 1194 ft 141 kts 304°
2026-04-26 08:38 50.89773 -0.79404 1201 ft 142 kts 300°
2026-04-26 08:38 50.90259 -0.80797 1181 ft 144 kts 301°
2026-04-26 08:38 50.90429 -0.82244 1214 ft 136 kts 252°
2026-04-26 08:39 50.89793 -0.83246 1207 ft 130 kts 195°
2026-04-26 08:39 50.88954 -0.83189 1186 ft 126 kts 143°
2026-04-26 08:39 50.88487 -0.82095 1117 ft 121 kts 107°
2026-04-26 08:39 50.88338 -0.80854 943 ft 104 kts 97°
2026-04-26 08:40 50.88218 -0.79848 719 ft 83 kts 106°
2026-04-26 08:40 50.87947 -0.79151 609 ft 74 kts 122°
2026-04-26 08:40 50.87628 -0.78482 531 ft 79 kts 122°
2026-04-26 08:40 50.87283 -0.77864 422 ft 71 kts 129°
2026-04-26 08:41 50.86927 -0.77350 323 ft 69 kts 129°
2026-04-26 08:41 50.86586 -0.76849 229 ft 64 kts 127°
2026-04-26 08:41 50.86265 -0.76390 119 ft 59 kts 131°
2026-04-26 08:41 50.86000 -0.76009 103 ft 56 kts 131°
2026-04-26 08:42 50.85651 -0.75609 266 ft 66 kts 133°
2026-04-26 08:42 50.85235 -0.75271 493 ft 71 kts 137°
2026-04-26 08:42 50.84798 -0.74854 747 ft 75 kts 137°
2026-04-26 08:42 50.84364 -0.74290 981 ft 87 kts 115°
2026-04-26 08:43 50.84237 -0.73284 1151 ft 100 kts 81°
2026-04-26 08:43 50.84530 -0.72199 1253 ft 111 kts 60°
2026-04-26 08:43 50.85070 -0.71249 1250 ft 124 kts 45°
2026-04-26 08:43 50.85785 -0.70406 1248 ft 128 kts 38°
2026-04-26 08:44 50.86640 -0.70042 1173 ft 134 kts 358°
2026-04-26 08:44 50.87474 -0.70671 1204 ft 135 kts 329°
2026-04-26 08:44 50.88219 -0.71614 1192 ft 139 kts 322°
2026-04-26 08:44 50.88923 -0.72661 1193 ft 139 kts 316°
2026-04-26 08:45 50.89580 -0.73798 1188 ft 140 kts 314°
2026-04-26 08:45 50.90189 -0.74979 1182 ft 139 kts 309°
2026-04-26 08:45 50.90654 -0.76286 1189 ft 138 kts 287°
2026-04-26 08:45 50.90587 -0.77814 1116 ft 143 kts 244°
2026-04-26 08:46 50.90039 -0.79040 1188 ft 135 kts 222°
2026-04-26 08:46 50.89302 -0.79878 1109 ft 118 kts 198°
2026-04-26 08:46 50.88595 -0.79982 998 ft 92 kts 147°
2026-04-26 08:46 50.88184 -0.79279 822 ft 87 kts 122°
2026-04-26 08:47 50.87798 -0.78566 684 ft 83 kts 130°
2026-04-26 08:47 50.87379 -0.77970 515 ft 78 kts 131°
2026-04-26 08:47 50.87001 -0.77409 337 ft 70 kts 134°
2026-04-26 08:47 50.86653 -0.76944 229 ft 64 kts 128°
2026-04-26 08:48 50.86324 -0.76475 137 ft 61 kts 128°
2026-04-26 08:48 50.86025 -0.76073 104 ft 51 kts 128°
2026-04-26 08:48 50.85773 -0.75683 178 ft 56 kts 125°
2026-04-26 08:48 50.85399 -0.75412 343 ft 60 kts 146°
2026-04-26 08:49 50.84977 -0.75206 494 ft 67 kts 150°
2026-04-26 08:49 50.84521 -0.74977 639 ft 73 kts 145°
2026-04-26 08:49 50.84193 -0.74443 837 ft 71 kts 84°
2026-04-26 08:49 50.84435 -0.73713 1024 ft 83 kts 52°
2026-04-26 08:50 50.84873 -0.72971 1102 ft 102 kts 50°
2026-04-26 08:50 50.85392 -0.72232 1220 ft 106 kts 47°
2026-04-26 08:50 50.85982 -0.71478 1264 ft 112 kts 44°
2026-04-26 08:50 50.86633 -0.70755 1281 ft 118 kts 33°
2026-04-26 08:51 50.88292 -0.71003 1333 ft 131 kts 329°
2026-04-26 08:51 50.88910 -0.72083 1340 ft 137 kts 298°
2026-04-26 08:51 50.89245 -0.73521 1328 ft 141 kts 284°
2026-04-26 08:52 50.89373 -0.74551 1312 ft 142 kts 279°
2026-04-26 08:52 50.89467 -0.76159 1211 ft 149 kts 269°
2026-04-26 08:52 50.89314 -0.77697 1295 ft 140 kts 253°
2026-04-26 08:52 50.88903 -0.79132 1186 ft 146 kts 230°
2026-04-26 08:53 50.88075 -0.79682 965 ft 124 kts 157°
2026-04-26 08:53 50.87609 -0.78824 720 ft 98 kts 112°
2026-04-26 08:53 50.87291 -0.77983 514 ft 84 kts 124°
2026-04-26 08:53 50.86923 -0.77344 336 ft 74 kts 130°
2026-04-26 08:54 50.86559 -0.76825 204 ft 66 kts 128°
2026-04-26 08:54 50.86248 -0.76377 116 ft 57 kts 126°
2026-04-26 08:54 50.85984 -0.75989 103 ft 43 kts 141°
2026-04-26 08:54 50.85828 -0.75770 101 ft 18 kts 137°
2026-04-26 08:55 50.85794 -0.75700 102 ft 2 kts 97°
2026-04-26 08:55 50.85793 -0.75639 103 ft 8 kts 86°
2026-04-26 08:55 50.85802 -0.75586 104 ft 5 kts 70°
2026-04-26 08:55 50.85805 -0.75574 104 ft 0 kts 70°